Sioux Gateway Col. Bud Day Field
KSUX : now visible

Airfield :











YOU CAN JOIN US ON...

 
LOGIN :

Register | Disclaimer

   EN    FR    IT 

 









Legend :    VFR   Marginal VFR   IFR   Intensive IFR   Very Intensive IFR
Visi :
Ceiling :
>= 8 km
>= 3000ft
5 to 8 km
1000 to 3000 ft
1500m to 5 km
500 to 1000 ft
800 to 1500m
200 to 500 ft
< 800m
< 200 ft
Symbols :   Thunderstorms  Fog  Heavy snow  Heavy precipitations  Wind > 20 kt






- Airport Elevation : 1098 ft
- IATA code : SUX


KSUX - Sioux Gateway Col. Bud Day Field

CURRENT METAR :
  • 130452Z AUTO 15004KT 8SM OVC011 M06/M07 A3002 RMK AO2 SLP183 T10561072

EXPIRED METARs :
  • 130352Z AUTO 00000KT 9SM OVC012 M06/M08 A3005 RMK AO2 SLP192 T10561078
  • 130252Z 00000KT 9SM OVC010 M06/M08 A3006 RMK AO2 SLP195 T10561078 58007

TAF KSUX
Valid from the 13 at 00:00 until the 14 at 00:00 UTC


122332Z 1300/1324 34006KT P6SM BKN014
FM130700 VRB03KT P6SM SCT015 BKN080
PROB30 1310/1315 4SM -SN OVC020
FM132100 30006KT P6SM FEW020 BKN100



MET'MAP, your aeronautical weather chart ! - Copyright ORBIFLY December 2007 - Disclaimer

ORBIFLY MET'MAP TEAM :

Programming & Development : Alexandra Zaïnal
Concept & original design : Baudouin d'Aumeries
Assistance for programming : Marc-Olivier Méhu
Technical & hardware support : Manuel Goepfert

Contact : metmap@orbifly.com




SOURCES & CREDITS :

   NOAA       Earth
Advisory